When you browse on this site, cookies collect data to enhance your experience and personalize the content and advertising you see.
Visit our Privacy Policy to learn more. By continuing to use the site, you agree to this use of cookies and data.
  • In Portugal
  • List of Countries
  • For 7 days
  • Water Temperature
  • Weather Map
  • Weather Widgets
  • user-avatar
    Login

    Hourly Weather Bor

    Today, 23 September, Monday

    Time Temperature Precipitation Wind Pressure Humidity
    00:00 +5°C° 0 mm 2 mps 748 mmHg 90%
    01:00 +4°C° 0 mm 2 mps 748 mmHg 92%
    02:00 +3°C° 0 mm 2 mps 749 mmHg 94%
    03:00 +3°C° 0 mm 2 mps 749 mmHg 94%
    04:00 +2°C° 0 mm 2 mps 749 mmHg 94%
    05:00 +2°C° 0 mm 2 mps 750 mmHg 95%
    06:00 +3°C° 0 mm 2 mps 750 mmHg 91%
    07:00 +3°C° 0 mm 2 mps 751 mmHg 87%
    08:00 +4°C° 0 mm 2 mps 751 mmHg 84%
    09:00 +6°C° 0 mm 2 mps 751 mmHg 76%
    10:00 +7°C° 0 mm 2 mps 751 mmHg 68%
    11:00 +9°C° 0 mm 2 mps 751 mmHg 60%
    12:00 +9°C° 0 mm 2 mps 751 mmHg 55%
    13:00 +10°C° 0 mm 2 mps 751 mmHg 50%
    14:00 +11°C° 0 mm 1 mps 751 mmHg 44%
    15:00 +11°C° 0 mm 1 mps 751 mmHg 48%
    16:00 +10°C° 0 mm 1 mps 751 mmHg 52%
    17:00 +10°C° 0 mm 1 mps 750 mmHg 55%
    18:00 +8°C° 0 mm 1 mps 751 mmHg 59%
    19:00 +7°C° 0 mm 1 mps 751 mmHg 62%
    20:00 +5°C° 0 mm 1 mps 751 mmHg 66%
    21:00 +5°C° 0 mm 1 mps 751 mmHg 68%
    22:00 +4°C° 0 mm 1 mps 751 mmHg 70%
    23:00 +4°C° 0 mm 1 mps 751 mmHg 72%

    Tomorrow, 24 September, Tuesday

    Time Temperature Precipitation Wind Pressure Humidity
    00:00 +3°C° 0 mm 0 mps 751 mmHg 74%
    01:00 +2°C° 0 mm 0 mps 751 mmHg 75%
    02:00 +2°C° 0 mm 0 mps 752 mmHg 77%
    03:00 +2°C° 0 mm 0 mps 751 mmHg 77%
    04:00 +2°C° 0 mm 0 mps 751 mmHg 78%
    05:00 +2°C° 0 mm 1 mps 751 mmHg 78%
    06:00 +4°C° 0 mm 1 mps 751 mmHg 74%
    07:00 +5°C° 0 mm 1 mps 751 mmHg 69%
    08:00 +6°C° 0 mm 1 mps 751 mmHg 65%
    09:00 +7°C° 0 mm 1 mps 751 mmHg 59%
    10:00 +9°C° 0 mm 1 mps 751 mmHg 54%
    11:00 +11°C° 0 mm 1 mps 751 mmHg 49%
    12:00 +11°C° 0 mm 1 mps 750 mmHg 46%
    13:00 +12°C° 0 mm 1 mps 750 mmHg 44%
    14:00 +12°C° 0 mm 1 mps 750 mmHg 42%
    15:00 +11°C° 0 mm 0 mps 749 mmHg 46%
    16:00 +10°C° 0 mm 0 mps 749 mmHg 49%
    17:00 +9°C° 0 mm 0 mps 749 mmHg 53%
    18:00 +8°C° 0 mm 0 mps 749 mmHg 56%
    19:00 +7°C° 0 mm 1 mps 749 mmHg 59%
    20:00 +6°C° 0 mm 1 mps 749 mmHg 61%
    21:00 +5°C° 0 mm 1 mps 749 mmHg 63%
    22:00 +5°C° 0 mm 1 mps 749 mmHg 65%
    23:00 +4°C° 0 mm 2 mps 749 mmHg 67%

    Day after tomorrow, 25 September, Wednesday

    Time Temperature Precipitation Wind Pressure Humidity
    00:00 +3°C° 0 mm 2 mps 749 mmHg 69%
    01:00 +3°C° 0 mm 2 mps 749 mmHg 70%
    02:00 +2°C° 0 mm 2 mps 749 mmHg 72%
    03:00 +2°C° 0 mm 2 mps 749 mmHg 73%
    04:00 +2°C° 0 mm 2 mps 748 mmHg 75%
    05:00 +2°C° 0 mm 2 mps 748 mmHg 76%
    06:00 +3°C° 0 mm 2 mps 748 mmHg 72%
    07:00 +4°C° 0 mm 2 mps 748 mmHg 68%
    08:00 +4°C° 0 mm 3 mps 748 mmHg 64%
    09:00 +7°C° 0 mm 3 mps 748 mmHg 59%
    10:00 +9°C° 0 mm 3 mps 748 mmHg 54%
    11:00 +10°C° 0 mm 3 mps 748 mmHg 50%
    12:00 +11°C° 0 mm 3 mps 747 mmHg 48%
    13:00 +12°C° 0 mm 3 mps 747 mmHg 47%
    14:00 +13°C° 0 mm 4 mps 746 mmHg 46%
    15:00 +12°C° 0 mm 3 mps 746 mmHg 51%
    16:00 +11°C° 0 mm 3 mps 746 mmHg 55%
    17:00 +12°C° 0 mm 2 mps 746 mmHg 60%
    18:00 +10°C° 0 mm 2 mps 746 mmHg 62%
    19:00 +9°C° 0 mm 2 mps 746 mmHg 64%
    20:00 +8°C° 0 mm 3 mps 746 mmHg 67%
    21:00 +8°C° 0 mm 3 mps 745 mmHg 66%
    22:00 +8°C° 0 mm 3 mps 745 mmHg 66%
    23:00 +8°C° 0 mm 2 mps 745 mmHg 66%

    26 September, Thursday

    Time Temperature Precipitation Wind Pressure Humidity
    00:00 +8°C° 0 mm 3 mps 745 mmHg 66%
    01:00 +8°C° 0 mm 3 mps 745 mmHg 67%
    02:00 +7°C° 0 mm 3 mps 745 mmHg 67%
    03:00 +7°C° 0 mm 3 mps 745 mmHg 68%
    04:00 +7°C° 0 mm 3 mps 744 mmHg 69%
    05:00 +7°C° 0 mm 3 mps 744 mmHg 71%
    06:00 +7°C° 0 mm 3 mps 744 mmHg 72%
    07:00 +8°C° 0 mm 3 mps 744 mmHg 73%
    08:00 +8°C° 0 mm 3 mps 744 mmHg 73%
    09:00 +9°C° 0.2 mm 3 mps 744 mmHg 74%
    10:00 +9°C° 0.2 mm 3 mps 744 mmHg 76%
    11:00 +10°C° 0.2 mm 3 mps 745 mmHg 77%
    12:00 +10°C° 0.9 mm 3 mps 744 mmHg 80%
    13:00 +10°C° 0.9 mm 4 mps 744 mmHg 84%
    14:00 +11°C° 0.9 mm 4 mps 744 mmHg 88%
    15:00 +11°C° 1 mm 4 mps 744 mmHg 89%
    16:00 +11°C° 1 mm 4 mps 744 mmHg 91%
    17:00 +10°C° 1 mm 4 mps 744 mmHg 92%
    18:00 +10°C° 0.4 mm 4 mps 744 mmHg 93%
    19:00 +10°C° 0.4 mm 3 mps 744 mmHg 94%
    20:00 +10°C° 0.4 mm 3 mps 744 mmHg 95%
    21:00 +10°C° 0.3 mm 3 mps 744 mmHg 96%
    22:00 +9°C° 0.3 mm 3 mps 744 mmHg 96%
    23:00 +9°C° 0.3 mm 3 mps 744 mmHg 96%

    27 September, Friday

    Time Temperature Precipitation Wind Pressure Humidity
    00:00 +9°C° 0.2 mm 3 mps 744 mmHg 97%
    01:00 +9°C° 0.2 mm 2 mps 745 mmHg 97%
    02:00 +9°C° 0.2 mm 2 mps 745 mmHg 97%
    03:00 +9°C° 0.5 mm 2 mps 745 mmHg 97%
    04:00 +9°C° 0.5 mm 2 mps 745 mmHg 98%
    05:00 +9°C° 0.5 mm 2 mps 745 mmHg 98%
    06:00 +9°C° 0.4 mm 2 mps 745 mmHg 97%
    07:00 +9°C° 0.4 mm 2 mps 745 mmHg 97%
    08:00 +9°C° 0.4 mm 2 mps 745 mmHg 97%
    09:00 +10°C° 0.1 mm 2 mps 746 mmHg 96%
    10:00 +10°C° 0.1 mm 2 mps 746 mmHg 95%
    11:00 +10°C° 0.1 mm 2 mps 747 mmHg 94%
    12:00 +10°C° 0 mm 2 mps 747 mmHg 94%
    13:00 +12°C° 0 mm 2 mps 747 mmHg 93%
    14:00 +12°C° 0 mm 2 mps 747 mmHg 92%
    15:00 +12°C° 0 mm 2 mps 747 mmHg 93%
    16:00 +12°C° 0 mm 1 mps 747 mmHg 93%
    17:00 +12°C° 0 mm 1 mps 747 mmHg 94%
    18:00 +11°C° 0 mm 1 mps 747 mmHg 95%
    19:00 +11°C° 0 mm 1 mps 748 mmHg 95%
    20:00 +11°C° 0 mm 1 mps 748 mmHg 96%
    21:00 +11°C° 0 mm 1 mps 748 mmHg 96%
    22:00 +11°C° 0 mm 1 mps 748 mmHg 96%
    23:00 +11°C° 0 mm 1 mps 748 mmHg 96%

    28 September, Saturday

    Time Temperature Precipitation Wind Pressure Humidity
    00:00 +11°C° 0 mm 1 mps 748 mmHg 96%
    01:00 +10°C° 0 mm 1 mps 748 mmHg 97%
    02:00 +10°C° 0 mm 1 mps 748 mmHg 97%
    03:00 +10°C° 0 mm 1 mps 748 mmHg 97%
    04:00 +8°C° 0 mm 2 mps 748 mmHg 98%
    05:00 +8°C° 0 mm 2 mps 748 mmHg 98%
    06:00 +9°C° 0 mm 2 mps 748 mmHg 97%
    07:00 +9°C° 0 mm 3 mps 748 mmHg 95%
    08:00 +10°C° 0 mm 3 mps 747 mmHg 94%
    09:00 +11°C° 0 mm 3 mps 747 mmHg 89%
    10:00 +13°C° 0 mm 4 mps 747 mmHg 84%
    11:00 +14°C° 0 mm 4 mps 747 mmHg 79%
    12:00 +15°C° 0 mm 4 mps 747 mmHg 78%
    13:00 +15°C° 0 mm 5 mps 746 mmHg 76%
    14:00 +16°C° 0 mm 5 mps 746 mmHg 74%
    15:00 +17°C° 0.1 mm 4 mps 745 mmHg 77%
    16:00 +17°C° 0.1 mm 4 mps 745 mmHg 80%
    17:00 +16°C° 0.1 mm 3 mps 745 mmHg 82%
    18:00 +16°C° 0.1 mm 3 mps 744 mmHg 83%
    19:00 +16°C° 0.1 mm 3 mps 744 mmHg 85%
    20:00 +14°C° 0.1 mm 3 mps 744 mmHg 86%
    21:00 +14°C° 1 mm 3 mps 744 mmHg 89%
    22:00 +14°C° 1 mm 3 mps 743 mmHg 92%
    23:00 +13°C° 1 mm 3 mps 743 mmHg 96%
    Show more